Location: Unspecified
(0.0000°N, 0.0000°E)
Time: 08:33:15
(UTC+00:00)

Tiangong - Pass Details

Date: 17 September 2021
Orbit: 381 x 386 km, 41.5° (Epoch: 18 September)

Event Time Altitude Azimuth Distance (km) Brightness Sun altitude
Exits shadow 04:47:19 - 191° (S) 1,649 4.1 -16.8°
Reaches altitude 10° 04:48:10 10° 181° (S) 1,391 3.8 -16.6°
Maximum altitude 04:50:21 17° 137° (SE) 1,035 3.7 -16.0°
Drops below altitude 10° 04:52:33 10° 92° (E) 1,389 5.3 -15.5°
Sets 04:55:04 0° 71° (ENE) 2,239 6.5 -14.9°
